[[{"header":{"parameterUnit":"m.s-1","parameterCategory":1,"la1":30.2992,"la2":30.254,"lo1":-89.0895,"lo2":-89.0443,"dy":0.0025,"dx":0.0025,"nx":19,"ny":19,"refTime":"2026-05-24T09:00:00:Z","depth":0,"parameterNumber":2,"parameterNumberName":"U-component_of_WINDS"},"data":[0,0,0,-0.3841,-0.384,-0.3823,-0.3823,-0.3814,-0.3814,0,0,0,0,0,0,0,0,0,0,0,-0.3853,-0.3853,-0.3841,-0.384,-0.3823,-0.3823,-0.3814,-0.3814,0,0,0,0,0,0,0,0,0,0,0,-0.3853,-0.3853,-0.3853,-0.384,-0.3823,-0.3823,-0.3814,-0.3823,0,0,0,0,0,0,0,0,0,0,-0.3837,-0.3856,-0.3853,-0.3853,-0.384,-0.3823,-0.3823,-0.3823,-0.3822,-0.3828,0,-0.3834,0,-0.3824,-0.3814,-0.3814,0,0,0,-0.3835,-0.3856,-0.3845,-0.3853,-0.384,-0.3823,-0.3829,-0.3822,-0.3821,-0.3827,-0.3833,-0.3833,-0.3824,-0.3814,-0.3814,-0.3863,-0.3863,0,0,-0.3836,-0.3854,-0.3846,-0.3845,-0.3848,-0.383,-0.3829,-0.3821,-0.383,-0.3833,-0.3832,-0.3824,-0.3814,-0.3814,-0.3862,-0.3863,0,0,0,-0.3842,-0.3855,-0.3843,-0.3846,-0.3841,-0.383,-0.3828,-0.3831,-0.3825,-0.3832,-0.3823,-0.3814,-0.3814,-0.3862,-0.3863,-0.3904,0,0,0,-0.3843,-0.3859,-0.3844,-0.3855,-0.3842,-0.3836,-0.3838,-0.3826,-0.3824,-0.3823,-0.3814,-0.3814,-0.3861,-0.3862,-0.3902,-0.3921,0,0,0,-0.3852,-0.386,-0.386,-0.3856,-0.3849,-0.3835,-0.3829,-0.3825,-0.3819,-0.3814,-0.3814,-0.3861,-0.3862,-0.39,-0.3917,-0.394,0,0,0,-0.3867,-0.3897,-0.3861,-0.389,-0.385,-0.3861,-0.3829,-0.3837,-0.3837,-0.3814,-0.3861,-0.3862,-0.3899,-0.3915,-0.3937,-0.3962,-0.3974,0,0,-0.3914,-0.3903,-0.3919,-0.3886,-0.3909,-0.3862,-0.3891,-0.3874,-0.3857,-0.3862,-0.3863,-0.3903,-0.3917,-0.3939,-0.4031,-0.4041,0,0,0,-0.394,-0.3952,-0.3954,-0.3956,-0.3943,-0.3935,-0.3912,-0.3906,-0.3909,-0.3863,-0.3915,-0.3924,-0.3936,-0.3947,-0.3955,-0.3965,-0.3868,-0.3868,-0.3868,-0.4034,-0.4011,-0.4036,-0.4011,-0.4013,-0.3989,-0.3989,-0.3977,-0.3953,-0.3966,-0.3967,-0.4026,-0.4039,-0.4045,-0.4056,-0.3977,-0.3978,-0.3978,-0.3978,-0.4103,-0.4116,-0.4084,-0.4097,-0.4072,-0.4083,-0.4062,-0.4045,-0.4052,-0.4023,-0.4032,-0.4002,-0.4056,-0.4064,-0.3981,-0.398,-0.398,-0.398,-0.3979,-0.4162,-0.4165,-0.4157,-0.4156,-0.4159,-0.4133,-0.4141,-0.4119,-0.4097,-0.4107,-0.4107,-0.4106,-0.4103,-0.4108,-0.4108,-0.4109,-0.4109,-0.4109,-0.4109,-0.4227,-0.4217,-0.4227,-0.4217,-0.4215,-0.421,-0.4187,-0.4185,-0.4177,-0.416,-0.4159,-0.4135,-0.4065,-0.4049,-0.4112,-0.4112,-0.4111,-0.4111,-0.4111,-0.4306,-0.4285,-0.43,-0.4299,-0.4285,-0.429,-0.4261,-0.4259,-0.4254,-0.4259,-0.4233,-0.4185,-0.4171,-0.4165,-0.4151,-0.4237,-0.4237,-0.4237,-0.4237,-0.4357,-0.4348,-0.4359,-0.4358,-0.4354,-0.433,-0.4349,-0.4332,-0.4311,-0.4307,-0.4291,-0.427,-0.4265,-0.4255,-0.4246,-0.4233,-0.4338,-0.4338,-0.4338,-0.4405,-0.4395,-0.4415,-0.4394,-0.4382,-0.4373,-0.4391,-0.4392,-0.4363,-0.4342,-0.4303,-0.4299,-0.4266,-0.4256,-0.4234,-0.4221,-0.4196,0,0]},{"header":{"parameterUnit":"m.s-1","parameterCategory":1,"la1":30.2992,"la2":30.254,"lo1":-89.0895,"lo2":-89.0443,"dy":0.0025,"dx":0.0025,"nx":19,"ny":19,"refTime":"2026-05-24T09:00:00:Z","depth":0,"parameterNumber":3,"parameterNumberName":"V-component_of_WINDS"},"data":[0,0,0,1.7995,1.7997,1.8101,1.8102,1.8212,1.8213,0,0,0,0,0,0,0,0,0,0,0,1.7953,1.7954,1.7995,1.7997,1.8101,1.8102,1.8212,1.8213,0,0,0,0,0,0,0,0,0,0,0,1.7953,1.7954,1.7954,1.7997,1.8101,1.8102,1.8212,1.8141,0,0,0,0,0,0,0,0,0,0,1.8043,1.7995,1.7953,1.7954,1.7998,1.8101,1.8102,1.8138,1.8145,1.8156,0,1.8166,0,1.8191,1.8219,1.822,0,0,0,1.8005,1.7989,1.8027,1.7954,1.7999,1.8101,1.8056,1.8142,1.815,1.8166,1.8168,1.8172,1.8193,1.822,1.822,1.8264,1.8264,0,0,1.7999,1.7966,1.8021,1.8032,1.8017,1.8053,1.8059,1.8147,1.8146,1.8168,1.8175,1.8195,1.822,1.8221,1.8264,1.8264,0,0,0,1.7977,1.7961,1.7998,1.8027,1.8047,1.8056,1.8063,1.8142,1.8157,1.8176,1.8196,1.8221,1.8222,1.8264,1.8264,1.8224,0,0,0,1.7974,1.7949,1.7995,1.7975,1.8045,1.8097,1.8055,1.8151,1.8162,1.8195,1.8221,1.8223,1.8265,1.8264,1.8226,1.8211,0,0,0,1.795,1.7946,1.7958,1.7974,1.8017,1.8096,1.8116,1.8154,1.8173,1.822,1.8223,1.8265,1.8264,1.8227,1.8213,1.8212,0,0,0,1.7914,1.7922,1.7957,1.7972,1.8016,1.8072,1.8116,1.8158,1.8193,1.8221,1.8264,1.8264,1.8228,1.8215,1.8213,1.8203,1.8197,0,0,1.7905,1.7919,1.7931,1.7965,1.8006,1.8058,1.8092,1.8155,1.8189,1.8236,1.8238,1.8225,1.8214,1.8212,1.8174,1.8168,0,0,0,1.7916,1.7924,1.7942,1.7975,1.8023,1.8063,1.8124,1.8147,1.8189,1.8207,1.8226,1.822,1.822,1.8217,1.8212,1.8214,1.8262,1.8262,1.8262,1.7855,1.7899,1.7919,1.7974,1.8005,1.8067,1.8095,1.8136,1.8171,1.8174,1.8188,1.816,1.8155,1.8152,1.8152,1.8187,1.8187,1.8187,1.8187,1.7844,1.7861,1.7906,1.7942,1.7987,1.8017,1.8075,1.8098,1.8131,1.8153,1.8156,1.8175,1.8145,1.8147,1.8184,1.8185,1.8185,1.8185,1.8186,1.7808,1.7824,1.7852,1.7902,1.7934,1.7989,1.8018,1.8057,1.8094,1.8096,1.8114,1.8115,1.8119,1.8102,1.8102,1.8102,1.8102,1.8102,1.8102,1.776,1.7793,1.7813,1.7864,1.7888,1.7925,1.7986,1.801,1.8047,1.8073,1.8073,1.8105,1.8134,1.814,1.8101,1.8101,1.8101,1.8101,1.8101,1.7731,1.7743,1.7775,1.7799,1.786,1.7888,1.7938,1.7984,1.8009,1.8021,1.8053,1.8068,1.8085,1.8089,1.8094,1.8045,1.8045,1.8045,1.8045,1.7699,1.7712,1.7752,1.7788,1.7828,1.7875,1.7906,1.7951,1.8,1.8017,1.803,1.804,1.8042,1.8058,1.8062,1.8067,1.8013,1.8013,1.8013,1.7683,1.7701,1.7721,1.777,1.782,1.786,1.789,1.7926,1.7984,1.8012,1.8031,1.8033,1.8049,1.8053,1.8081,1.8087,1.8097,0,0]}]]